Simultaneous Nadir Overpasses (SNOs) Predictions

Prediction of SNOs between NOAA-21 and PACE Satellite Orbit:

Table of predicted SNOs for the next 14.0 days since TLE Epoch: 8/3/2024
Index Date (NOAA-21) Time (NOAA-21) Lat,Lon (NOAA-21) SZA (NOAA-21 ) Date (PACE) Time (PACE) Lat,Lon (PACE) SZA (PACE ) Distance(km) Time Diff (sec)
1 08/04/2024 22:59:39 79.90, 157.07 65.40 08/04/2024 23:00:22 79.89, 157.21 65.35 2.92 43
2 08/04/2024 23:50:17 -79.69, -33.62 114.99 08/04/2024 23:49:25 -79.68, -33.52 114.98 2.14 52
3 08/07/2024 03:26:03 79.81, 91.37 65.82 08/07/2024 03:26:10 79.81, 91.37 65.82 0.41 7
4 08/09/2024 07:01:49 -79.93,-143.70 113.37 08/09/2024 07:02:53 -79.93,-143.69 113.40 0.38 64
5 08/09/2024 07:52:27 79.72, 25.61 66.26 08/09/2024 07:51:57 79.72, 25.59 66.28 0.45 30
6 08/11/2024 11:28:14 -79.87, 150.24 112.84 08/11/2024 11:28:40 -79.86, 150.37 112.88 2.81 26
7 08/11/2024 12:18:52 79.66, -40.48 66.79 08/11/2024 12:17:44 79.65, -40.39 66.80 2.00 68
8 08/13/2024 15:54:38 -79.79, 84.43 112.35 08/13/2024 15:54:26 -79.78, 84.51 112.36 1.75 12
9 08/15/2024 19:30:21 79.83,-149.93 68.40 08/15/2024 19:31:06 79.84,-150.08 68.40 2.91 45



Historial Predications of SNOs between NOAA-21 and PACE
